CAPE
289 713 1088 1065 921 903 782 490 70 14 47 69 139 306 330 368 454 395 702 1403 1236 1448 1791 1451 1879 1440 1699 1375 1752 1851 1403 1077 1244 1453 1238 1088 1409 1321 1394 1306 1173 1001 875
654 104 910 936 554 610 526 237 152 108 61 44 41 154 195 176 223 291 491 1042 887 925 1533 1892 1416 1500 1843 1431 1465 1767 1702 1002 1229 1111 1068 758 566 664 554 591 572 591 570
477 79 204 487 516 349 117 138 145 162 92 51 28 39 52 110 133 139 247 451 634 951 831 1166 1521 1539 1090 1816 1602 1707 1671 1240 950 1085 964 637 319 270 426 507 468 453 502
201 345 14 92 251 197 113 73 68 83 78 30 5 17 9 26 51 96 81 63 165 324 631 990 1023 1095 1309 1024 1841 1838 1422 1619 1082 915 924 816 512 448 473 396 445 376 366
264 149 216 183 253 149 135 53 18 37 58 20 0 0 0 0 0 28 94 14 13 21 132 230 790 808 1025 1471 1246 1750 1538 1498 1392 907 714 841 721 447 386 479 418 246 174
417 239 255 216 251 91 81 98 36 10 18 17 0 0 0 0 0 0 2 19 12 14 0 69 142 371 640 1115 1413 1556 1439 1294 1534 1301 766 576 674 661 624 541 341 139 22
535 505 345 257 265 158 96 107 45 28 16 0 0 0 4 0 2 0 7 0 9 12 17 5 134 210 195 503 702 1117 1138 1327 1524 1558 1210 639 386 441 474 536 352 194 4
575 623 388 393 296 250 185 141 72 18 9 0 0 1 41 2 16 13 3 0 0 1 1 2 20 116 188 171 335 514 617 994 1400 1439 1490 1124 610 353 242 222 226 203 176
483 711 599 428 286 197 208 143 98 55 53 0 0 13 12 3 8 10 20 2 6 11 7 6 0 22 72 86 88 344 560 520 942 1224 1446 1485 1091 676 357 146 70 57 80
509 575 544 517 404 272 254 187 119 97 54 61 12 5 8 22 0 12 39 34 41 46 31 24 20 0 2 13 48 151 294 622 612 933 1311 1355 1461 1132 810 520 153 42 15
522 520 422 358 217 324 304 273 190 130 110 91 88 94 61 16 36 26 15 39 32 12 48 50 21 14 0 12 28 61 146 246 438 759 779 982 965 1385 1293 1067 804 365 100
531 580 610 466 350 302 344 304 253 181 186 154 112 118 126 99 55 42 9 34 36 37 24 41 58 68 65 57 73 79 108 174 287 617 687 743 853 806 1298 1210 1150 1070 705
410 458 619 583 580 535 438 402 316 261 235 229 207 169 171 160 69 54 29 36 18 31 44 67 53 62 59 21 41 91 118 141 178 216 244 351 582 820 778 887 1182 1080 820
381 400 441 557 673 764 714 655 573 457 375 356 258 229 199 180 124 103 95 91 91 41 14 33 44 40 44 52 33 40 98 124 130 121 146 177 232 524 722 715 785 973 979
509 571 526 476 599 769 832 872 650 655 546 517 528 496 385 363 198 177 188 137 149 140 88 27 17 38 63 40 37 64 56 71 95 113 109 162 191 192 330 475 449 487 534
589 644 610 535 460 519 624 742 769 817 792 832 839 638 606 528 430 427 411 275 181 213 209 44 42 28 93 97 35 37 55 34 38 55 63 60 113 161 179 185 294 330 279
906 976 921 813 662 550 683 987 1035 1059 980 954 940 795 833 736 748 647 477 394 283 226 296 192 122 112 53 97 99 110 64 71 46 31 35 27 20 23 50 84 111 119 115
1249 1286 1264 1284 1320 1299 1252 1207 1177 1225 1144 970 915 876 913 949 921 843 658 530 446 343 424 416 351 322 284 232 181 189 143 139 93 100 64 63 58 33 16 4 0 37 67
1701 1524 1508 1490 1524 1481 1415 1358 1356 1267 1175 1183 1106 1142 1086 1239 1154 1184 1012 782 674 616 540 607 462 409 438 322 292 236 199 205 250 185 111 98 64 47 30 21 16 1 18
1825 1768 1664 1667 1632 1653 1651 1571 1525 1541 1417 1393 1400 1381 1470 1265 1399 1403 1063 1006 1046 949 810 655 454 443 411 462 376 373 218 120 151 184 209 205 144 116 65 44 24 11 3
2131 2018 2014 1817 1773 1788 1732 1688 1652 1795 1722 1708 1719 1682 1747 1521 1635 1289 1108 1128 1178 1072 942 657 563 535 580 582 540 330 137 89 93 137 203 198 190 193 174 71 48 23 13
2624 2479 2271 2170 1948 2142 2035 1805 2012 2099 2048 2023 1964 1936 1935 1819 1693 1503 1205 1233 1197 1125 1078 865 740 777 774 703 478 461 267 85 19 157 183 102 204 128 145 192 161 106 67
2716 2467 2384 2170 2162 2194 2179 2123 1926 2147 2297 2196 2183 2087 1829 1877 1723 1630 1239 1145 1103 1127 1120 1082 1046 1025 968 814 640 602 304 91 98 137 283 156 123 18 30 118 75 83 59
2616 2500 2663 2571 2486 2360 2155 2204 2112 2211 2419 2372 2306 2041 1720 1856 1667 1555 1420 1246 1207 1178 921 936 1054 1029 934 979 834 747 280 151 170 234 266 203 126 117 75 105 53 25 20
2305 2344 2600 2558 2581 2686 2325 2177 2173 2349 2432 2405 2178 2083 1778 1666 1339 1172 1297 1089 1000 1027 804 649 711 777 742 644 624 376 365 230 177 199 88 167 132 104 139 155 88 0 0
915 2068 2661 2575 2596 2553 2378 2090 2028 2364 2540 2411 2066 1906 1600 1744 1119 1034 1227 1211 1157 1074 1065 1148 981 711 473 320 113 282 423 380 176 261 101 124 115 96 138 81 38 45 66
CIN
-70 -35 -15 -15 -16 -12 -14 -35 -96 -170 -103 -93 -81 -61 -71 -84 -70 -71 -41 -4 -8 -2 -2 -1 0 -5 -2 -9 0 0 -4 -16 -5 -2 0 -1 -2 -3 -2 -3 -5 -4 -15
-46 -84 -23 -24 -31 -26 -28 -56 -64 -71 -83 -101 -102 -85 -80 -88 -77 -71 -48 -15 -16 -21 -1 -1 -5 -1 -1 -8 -11 -2 0 -18 -2 -7 -8 -23 -40 -27 -40 -46 -47 -49 -46
-66 -84 -71 -47 -43 -51 -70 -71 -76 -63 -83 -102 -98 -104 -94 -83 -64 -69 -60 -36 -24 -12 -16 -9 -2 -3 -4 -1 -2 -1 -1 -13 -13 -4 -15 -47 -85 -87 -60 -52 -65 -71 -59
-86 -63 -99 -75 -64 -73 -79 -72 -74 -65 -73 -99 -120 -154 -145 -102 -76 -59 -73 -78 -56 -39 -24 -11 -9 -10 -2 -4 0 -1 -3 0 -10 -25 -21 -30 -61 -62 -59 -63 -66 -86 -90
-77 -85 -70 -72 -69 -100 -94 -94 -99 -94 -73 -107 -6 0 0 0 0 -77 -48 -102 -113 -96 -76 -55 -15 -12 -10 0 -4 0 -2 -1 -1 -29 -51 -29 -40 -60 -66 -53 -59 -101 -123
-69 -74 -71 -69 -72 -91 -91 -89 -87 -125 -133 -118 0 0 0 0 0 -193 -97 -58 -66 -104 -39 -65 -65 -35 -20 -5 0 -1 -1 -4 -1 -1 -40 -63 -46 -40 -32 -46 -67 -107 -46
-69 -65 -76 -69 -74 -82 -83 -90 -101 -97 -117 0 0 0 -204 0 -194 0 -258 -1 -128 -75 -88 -140 -42 -41 -47 -21 -11 -4 -3 -1 0 0 -3 -51 -83 -71 -57 -39 -67 -86 -8
-61 -59 -64 -62 -65 -68 -91 -84 -92 -118 -126 0 0 -55 -83 -150 -137 -144 -171 -28 0 -135 -64 -111 -105 -48 -45 -50 -29 -14 -19 -5 0 0 0 -11 -53 -81 -95 -91 -86 -89 -86
-73 -60 -58 -58 -66 -75 -56 -74 -92 -96 -70 -22 0 -73 -55 -86 -69 -66 -111 -112 -43 -88 -106 -124 0 -76 -54 -72 -63 -25 -12 -21 -7 -2 0 0 -14 -42 -75 -103 -129 -128 -108
-83 -74 -68 -67 -71 -85 -74 -75 -92 -108 -112 -77 -90 -140 -115 -42 0 -52 -61 -66 -58 -69 -65 -75 -72 0 -14 -67 -71 -43 -30 -13 -17 -7 0 0 0 -8 -29 -47 -95 -133 -148
-91 -82 -83 -89 -110 -92 -85 -76 -96 -104 -107 -81 -62 -55 -60 -78 -36 -44 -76 -59 -73 -95 -77 -75 -83 -110 -151 -118 -79 -66 -59 -41 -22 -14 -10 -3 -5 0 0 -6 -19 -55 -94
-83 -89 -85 -94 -95 -100 -92 -89 -92 -88 -85 -96 -87 -62 -46 -30 -50 -57 -88 -73 -47 -63 -74 -91 -81 -83 -77 -79 -66 -64 -55 -49 -40 -17 -17 -13 -8 -7 0 0 -1 -3 -20
-113 -98 -85 -83 -82 -81 -92 -90 -86 -85 -91 -82 -80 -80 -73 -55 -75 -74 -83 -83 -79 -81 -88 -93 -102 -96 -99 -105 -85 -49 -41 -41 -49 -53 -50 -40 -23 -8 -8 -4 -1 -1 -7
-124 -103 -96 -86 -81 -80 -79 -75 -74 -81 -95 -91 -95 -103 -97 -99 -86 -80 -55 -41 -41 -88 -114 -80 -97 -109 -104 -120 -117 -64 -41 -55 -52 -62 -63 -63 -66 -28 -14 -13 -7 -2 -1
-122 -112 -108 -102 -90 -109 -101 -89 -78 -75 -80 -75 -79 -79 -83 -89 -103 -90 -68 -59 -24 -27 -65 -99 -95 -112 -79 -96 -92 -56 -85 -87 -87 -79 -81 -57 -57 -67 -46 -33 -34 -25 -18
-132 -114 -117 -120 -113 -112 -129 -112 -101 -102 -92 -74 -70 -75 -70 -81 -82 -67 -53 -60 -59 -27 -26 -93 -63 -82 -54 -60 -83 -67 -75 -76 -107 -112 -107 -102 -61 -49 -46 -47 -38 -34 -37
-130 -110 -101 -99 -105 -115 -121 -112 -101 -100 -95 -74 -85 -57 -46 -59 -50 -45 -50 -54 -58 -66 -38 -53 -79 -39 -43 -59 -47 -52 -63 -64 -89 -106 -116 -118 -134 -122 -85 -67 -66 -69 -68
-138 -111 -99 -83 -76 -75 -87 -78 -74 -78 -68 -44 -49 -53 -41 -44 -41 -38 -34 -37 -51 -80 -52 -36 -48 -36 -37 -40 -57 -47 -50 -56 -60 -56 -64 -88 -109 -132 -155 -150 -7 -91 -68
-126 -121 -113 -96 -82 -80 -70 -81 -72 -59 -54 -42 -49 -38 -36 -29 -32 -25 -29 -24 -27 -28 -48 -43 -62 -63 -41 -47 -66 -83 -64 -56 -41 -48 -53 -71 -93 -122 -141 -162 -183 -14 -166
-136 -132 -132 -116 -113 -102 -88 -84 -77 -66 -61 -45 -47 -45 -33 -26 -16 -19 -23 -19 -17 -7 -16 -50 -93 -79 -84 -82 -90 -62 -52 -101 -59 -57 -49 -50 -58 -70 -107 -120 -141 -68 -84
-132 -138 -134 -146 -147 -142 -135 -118 -87 -57 -56 -42 -46 -40 -35 -30 -22 -43 -51 -38 -32 -21 -9 -27 -52 -69 -54 -41 -28 -70 -101 -140 -131 -104 -84 -87 -82 -70 -74 -104 -114 -146 -155
-108 -110 -121 -122 -114 -117 -133 -126 -79 -53 -64 -60 -59 -50 -40 -32 -24 -30 -48 -46 -50 -60 -54 -70 -63 -32 -26 -22 -54 -50 -85 -135 -170 -143 -106 -105 -78 -86 -78 -86 -94 -105 -122
-112 -105 -113 -123 -110 -112 -102 -113 -128 -91 -69 -88 -74 -56 -53 -49 -57 -45 -72 -55 -49 -47 -43 -39 -39 -23 -20 -25 -22 -17 -59 -115 -108 -129 -94 -121 -116 -206 -174 -126 -146 -148 -155
-125 -114 -117 -111 -108 -110 -118 -108 -99 -77 -56 -59 -66 -67 -75 -49 -51 -58 -57 -74 -63 -40 -47 -28 -30 -36 -31 -23 -18 -13 -74 -105 -108 -84 -75 -108 -116 -114 -146 -116 -140 -179 -192
-135 -142 -129 -140 -139 -129 -139 -102 -85 -54 -26 -24 -34 -32 -40 -25 -48 -69 -46 -67 -69 -74 -84 -88 -72 -44 -46 -57 -46 -57 -38 -36 -64 -70 -105 -63 -87 -109 -117 -89 -98 0 0
-234 -142 -104 -135 -157 -139 -150 -139 -87 -43 -24 -28 -34 -44 -54 -26 -39 -53 -32 -26 -14 -18 -18 -18 -30 -58 -88 -108 -161 -80 -42 -20 -24 -21 -90 -52 -42 -39 -37 -118 -130 -94 -51
Wind_Speed
22 23 23 23 22 22 22 21 20 19 18 15 14 14 15 15 14 13 11 12 12 9 9 9 9 9 9 10 11 11 13 12 12 12 12 12 14 17 19 18 16 16 17
22 22 22 22 22 21 21 20 18 17 15 16 16 14 13 13 12 11 10 8 7 7 9 9 8 8 7 8 10 11 11 12 11 11 11 10 11 12 14 17 18 16 16
22 22 22 21 21 20 20 18 16 15 16 15 16 14 12 12 12 11 8 8 14 7 7 8 12 10 8 7 7 9 10 10 10 9 9 10 10 12 14 16 18 17 15
20 20 21 21 20 19 18 16 15 14 15 15 14 13 13 12 10 11 10 7 9 7 15 12 10 13 14 13 6 7 9 10 8 8 8 8 8 8 11 13 17 17 15
20 19 21 21 19 18 16 14 13 13 13 12 11 11 11 11 11 9 14 14 12 6 8 17 21 20 17 14 4 5 6 9 13 9 7 7 6 7 8 10 14 15 15
20 18 19 19 18 14 13 13 12 11 12 11 10 13 13 12 10 12 13 13 14 12 4 2 20 22 16 20 14 13 4 11 23 14 5 5 6 6 6 6 9 13 12
16 17 17 16 16 13 12 13 11 10 10 9 8 12 13 11 9 11 12 13 12 10 6 12 2 17 20 13 19 19 16 20 12 4 4 4 4 5 5 7 5 7 11
14 14 15 14 13 11 11 11 11 7 9 8 11 21 20 15 11 8 9 11 11 13 13 13 13 8 3 8 18 20 27 31 30 8 13 8 2 3 3 7 7 5 5
12 12 13 14 11 10 14 12 13 12 10 8 10 9 14 15 22 12 10 8 6 7 6 11 16 16 6 6 11 23 31 33 32 32 11 12 8 1 1 4 8 8 6
11 13 13 14 13 12 14 14 14 14 9 10 8 11 8 9 6 19 14 13 9 7 9 9 13 16 14 13 7 11 34 32 30 26 33 8 6 3 7 5 8 9 8
13 12 11 14 16 16 14 13 12 12 12 10 5 7 6 6 7 6 5 7 8 6 7 7 10 10 13 14 19 22 32 33 36 28 28 30 6 5 10 14 10 11 10
27 23 14 14 15 14 15 15 13 11 12 10 8 4 3 6 6 2 2 2 2 2 4 6 9 11 11 13 15 19 26 26 25 25 15 24 7 7 12 17 18 14 11
24 25 20 15 13 15 16 11 9 10 9 10 9 9 6 8 2 1 2 10 7 15 12 3 6 9 9 9 14 18 22 25 25 24 24 32 27 12 11 9 11 11 14
16 19 19 18 16 10 10 10 10 11 8 11 9 6 7 8 5 7 3 2 3 12 17 12 13 4 6 6 12 16 21 26 27 26 26 29 22 20 22 16 14 12 12
19 18 18 20 20 16 15 8 15 16 12 12 13 9 9 6 1 2 2 3 4 20 23 21 18 15 7 3 8 8 15 20 24 26 26 28 30 30 28 26 24 19 16
18 20 21 22 24 21 17 13 17 19 18 21 16 10 10 3 1 2 2 3 3 3 15 17 19 17 14 12 5 4 10 17 19 23 24 24 29 32 33 30 28 27 21
24 25 25 25 25 26 23 12 17 21 13 18 15 13 14 3 3 10 8 4 4 5 7 15 17 19 17 14 16 14 7 6 14 15 24 25 28 32 31 29 25 22 21
27 27 25 25 25 26 29 28 28 25 21 18 16 13 12 4 4 5 5 5 6 6 6 11 13 15 14 16 18 19 13 7 1 5 8 23 30 31 33 32 29 23 21
28 30 26 26 26 27 26 26 29 29 25 24 19 16 14 8 9 10 8 8 8 7 7 7 15 14 12 14 16 17 20 18 7 8 18 19 24 24 23 25 26 26 24
29 28 28 28 26 24 26 27 28 28 27 24 21 18 16 13 13 10 9 10 8 7 7 6 7 12 14 12 10 9 19 17 12 12 4 8 7 11 13 21 20 21 21
29 28 27 27 26 25 24 27 29 29 26 25 22 20 18 16 13 10 10 11 9 9 9 8 7 7 10 13 7 11 15 17 16 12 16 16 15 16 17 11 10 13 14
31 31 32 28 27 30 29 24 24 24 23 20 20 17 16 13 13 12 9 9 9 10 11 9 8 7 7 6 12 12 16 19 21 14 15 19 16 19 19 18 12 6 8
33 34 34 28 29 30 25 22 20 18 17 15 14 10 5 4 4 2 5 11 14 14 10 8 8 7 9 9 7 4 5 10 10 15 16 19 16 17 17 18 14 12 10
35 36 35 30 21 18 16 15 14 7 7 12 11 6 1 1 2 3 3 1 1 1 8 7 10 14 13 7 4 2 3 9 10 7 11 16 16 18 18 17 17 19 19
34 36 28 27 19 30 10 8 9 14 17 31 29 20 13 12 11 5 8 5 6 5 5 5 6 9 11 8 2 9 5 12 12 16 14 16 19 20 20 20 19 18 20
36 35 35 29 22 25 27 20 16 21 24 26 27 22 20 18 17 13 13 13 15 14 14 18 23 21 12 17 12 10 15 17 17 19 16 14 19 21 25 21 19 20 24
Wind_Direction
152 160 165 158 150 142 135 129 124 141 127 84 59 71 106 101 94 88 71 100 97 53 42 38 7 356 1 9 0 14 23 14 9 17 16 25 42 54 63 57 51 49 55
158 154 157 156 156 143 140 131 134 133 110 126 122 82 91 95 85 91 81 52 28 33 341 338 359 11 17 11 41 43 22 8 360 11 14 11 26 30 45 63 65 57 55
160 160 160 153 153 151 148 137 135 112 111 112 135 117 68 110 122 125 95 34 312 23 348 339 306 329 341 29 21 16 34 358 354 357 5 21 33 47 56 66 71 66 56
160 159 164 163 155 150 148 137 127 112 116 120 127 129 122 111 108 142 133 90 354 12 305 308 321 302 296 302 65 53 44 42 13 330 0 17 18 23 47 61 75 75 66
166 166 169 171 158 149 143 131 122 114 122 128 122 117 135 164 160 132 170 167 158 119 337 297 282 280 285 297 44 68 61 78 265 303 4 17 340 3 28 50 74 79 73
172 165 170 172 165 148 143 140 135 123 132 130 123 184 190 185 169 176 175 173 176 168 160 18 293 277 288 276 296 292 87 123 241 277 356 15 352 356 344 19 58 82 76
163 165 170 167 165 157 154 155 139 133 139 80 79 195 202 186 172 172 175 178 179 176 152 173 71 290 278 296 283 278 286 176 145 316 328 17 0 356 353 315 353 60 89
158 162 162 162 156 145 150 150 146 82 131 92 28 306 327 27 52 123 157 170 174 172 173 173 173 157 153 307 286 277 259 235 230 152 149 130 23 10 30 305 312 345 60
157 156 163 162 152 149 169 159 163 159 152 103 128 84 21 34 330 58 67 111 132 145 149 175 186 182 174 176 182 271 249 233 232 232 164 157 147 335 340 310 299 304 316
161 165 167 171 169 163 173 175 170 175 153 157 104 159 143 80 74 358 44 46 106 133 167 159 180 190 192 196 213 215 225 249 253 261 240 177 173 216 288 293 293 293 298
174 169 169 174 180 177 176 174 170 170 174 170 133 53 112 132 147 138 125 76 62 124 145 161 169 175 185 189 193 196 207 210 239 261 215 257 204 231 277 282 287 288 290
206 195 179 180 180 180 182 186 182 176 183 183 177 158 125 33 33 74 180 195 178 115 150 155 171 178 177 181 188 192 197 196 191 214 191 195 236 245 271 278 279 283 285
197 202 190 185 185 190 190 181 180 183 184 191 193 198 197 207 203 3 7 356 359 354 360 97 160 173 175 172 185 188 193 193 194 197 197 207 205 207 212 242 266 268 281
182 189 193 191 193 188 189 187 189 194 194 202 205 206 208 214 214 211 215 8 12 358 346 353 346 3 163 162 180 186 192 197 201 201 202 209 201 197 200 205 212 227 262
193 192 193 197 201 194 193 188 203 205 201 206 212 212 214 216 247 177 164 160 37 341 331 334 339 343 358 51 155 157 181 191 198 201 204 208 207 209 206 206 209 211 216
191 197 201 203 208 206 200 196 203 213 214 222 215 205 208 202 158 47 52 109 111 97 2 353 339 338 339 344 11 3 169 185 192 201 203 205 209 211 213 213 216 216 215
203 208 209 212 213 216 214 196 205 215 207 216 208 203 212 166 34 354 4 49 77 66 43 11 357 346 330 323 321 318 353 155 182 193 206 208 212 215 215 216 217 218 218
210 212 210 211 215 219 227 225 227 227 218 213 206 195 204 142 149 60 64 94 73 68 59 13 18 22 5 333 310 297 333 349 77 331 191 206 216 220 220 220 220 220 222
216 219 212 214 216 219 218 219 228 233 229 227 218 205 206 183 181 171 146 135 133 109 107 39 350 5 33 13 326 310 292 312 135 162 198 204 211 212 213 217 219 219 223
225 221 217 218 217 214 216 219 225 228 227 224 218 211 208 197 192 171 159 163 133 125 118 96 53 8 354 14 63 240 312 320 11 356 27 177 203 217 217 218 221 224 227
231 224 221 220 217 214 213 216 222 225 223 225 218 213 208 200 185 169 165 169 154 153 146 144 119 71 20 353 73 4 357 345 354 6 343 341 335 326 321 310 292 279 253
255 265 239 224 221 227 224 208 207 210 210 207 209 203 199 188 189 186 174 171 165 166 169 159 148 147 151 76 6 7 348 342 328 0 352 333 344 330 329 328 330 306 292
269 261 258 282 229 232 214 204 197 197 198 195 195 189 166 152 141 93 167 184 189 190 181 170 179 180 188 183 163 131 46 13 13 357 351 341 347 340 339 335 335 332 327
270 264 264 283 296 208 202 199 197 203 201 196 196 190 178 106 14 16 14 30 163 192 187 188 195 206 204 188 172 36 23 5 3 14 4 348 354 346 347 345 339 331 326
286 278 292 290 292 224 227 233 281 296 298 280 283 298 309 313 321 332 335 337 336 330 334 206 212 211 209 204 219 342 345 344 347 341 346 343 343 341 341 340 339 340 338
289 289 285 290 290 289 288 283 282 289 289 288 289 293 298 300 306 314 317 319 318 319 321 318 309 311 318 320 324 323 324 325 331 333 339 342 338 338 328 335 338 332 330